RRR4238 SKRG-SKCG

Flight info

Callsign RRR4238
Flight time 0h 49m
Altitude 24000
Route LLIX2A LATIS W65 BUTAL DCT AKPAM AKPA2A
Aircraft A400/H-SGHIRWXY/LB1

Departure

Time 2026-05-05 14:09
Airport Jose Maria Córdova International Airport (SKRG)

Arrival

Time 2026-05-05 14:58
Airport Rafael Nuñez International Airport (SKCG)
Time Latitude Longitude Altitude Speed Heading
2026-05-05 13:58 6.17535 -75.42668 7028 ft 0 kts 270°
2026-05-05 14:03 6.17535 -75.42652 7028 ft 3 kts 272°
2026-05-05 14:03 6.17533 -75.42632 7028 ft 3 kts 278°
2026-05-05 14:03 6.17529 -75.42612 7028 ft 3 kts 291°
2026-05-05 14:04 6.17520 -75.42596 7027 ft 3 kts 322°
2026-05-05 14:04 6.17509 -75.42590 7026 ft 1 kts 359°
2026-05-05 14:04 6.17508 -75.42590 7026 ft 2 kts 360°
2026-05-05 14:06 6.17518 -75.42590 7026 ft 5 kts 360°
2026-05-05 14:06 6.17568 -75.42565 7029 ft 11 kts 64°
2026-05-05 14:07 6.17609 -75.42491 7031 ft 16 kts 12°
2026-05-05 14:07 6.17743 -75.42492 7033 ft 23 kts 359°
2026-05-05 14:07 6.17917 -75.42493 7035 ft 28 kts 359°
2026-05-05 14:07 6.18023 -75.42436 7038 ft 17 kts 88°
2026-05-05 14:08 6.17984 -75.42326 7038 ft 18 kts 163°
2026-05-05 14:08 6.17893 -75.42322 7036 ft 6 kts 179°
2026-05-05 14:08 6.17706 -75.42318 7035 ft 80 kts 179°
2026-05-05 14:08 6.16792 -75.42316 7109 ft 167 kts 180°
2026-05-05 14:09 6.15513 -75.42342 7790 ft 198 kts 179°
2026-05-05 14:09 6.14067 -75.42361 8629 ft 213 kts 178°
2026-05-05 14:09 6.12586 -75.42336 9679 ft 219 kts 176°
2026-05-05 14:09 6.11058 -75.42184 10839 ft 221 kts 167°
2026-05-05 14:10 6.09565 -75.41743 12046 ft 222 kts 155°
2026-05-05 14:10 6.08216 -75.40991 13258 ft 223 kts 142°
2026-05-05 14:10 6.07061 -75.39944 14402 ft 226 kts 129°
2026-05-05 14:10 6.06161 -75.38645 15382 ft 233 kts 117°
2026-05-05 14:11 6.05562 -75.37111 16434 ft 238 kts 103°
2026-05-05 14:11 6.05345 -75.35451 17517 ft 242 kts 90°
2026-05-05 14:11 6.05543 -75.33750 18610 ft 249 kts 76°
2026-05-05 14:11 6.06163 -75.32137 19552 ft 254 kts 62°
2026-05-05 14:12 6.07198 -75.30667 20534 ft 259 kts 51°
2026-05-05 14:12 6.08439 -75.29318 21507 ft 265 kts 47°
2026-05-05 14:12 6.09735 -75.27984 22525 ft 268 kts 45°
2026-05-05 14:12 6.11235 -75.26846 23463 ft 275 kts 27°
2026-05-05 14:13 6.13113 -75.26289 24045 ft 293 kts 10°
2026-05-05 14:13 6.15229 -75.26103 24264 ft 319 kts
2026-05-05 14:13 6.17546 -75.25996 24312 ft 346 kts
2026-05-05 14:13 6.20035 -75.25887 24309 ft 368 kts
2026-05-05 14:14 6.22651 -75.25983 24299 ft 383 kts 353°
2026-05-05 14:14 6.25212 -75.26784 24289 ft 391 kts 335°
2026-05-05 14:14 6.27396 -75.28363 24290 ft 396 kts 317°
2026-05-05 14:14 6.29267 -75.30428 24293 ft 398 kts 313°
2026-05-05 14:15 6.31228 -75.32390 24289 ft 397 kts 321°
2026-05-05 14:15 6.33498 -75.33938 24110 ft 394 kts 334°
2026-05-05 14:15 6.36041 -75.34950 24111 ft 392 kts 346°
2026-05-05 14:15 6.38724 -75.35409 24112 ft 390 kts 356°
2026-05-05 14:16 6.41433 -75.35608 24125 ft 390 kts 358°
2026-05-05 14:16 6.44141 -75.35757 24127 ft 390 kts 358°
2026-05-05 14:16 6.46859 -75.35902 24128 ft 390 kts 358°
2026-05-05 14:16 6.49533 -75.36048 24124 ft 390 kts 358°
2026-05-05 14:17 6.52242 -75.36200 24128 ft 390 kts 358°
2026-05-05 14:17 6.54952 -75.36354 24127 ft 390 kts 358°
2026-05-05 14:17 6.57662 -75.36509 24126 ft 390 kts 358°
2026-05-05 14:17 6.60372 -75.36665 24128 ft 390 kts 358°
2026-05-05 14:18 6.63084 -75.36822 24117 ft 390 kts 358°
2026-05-05 14:18 6.64879 -75.36925 24116 ft 390 kts 358°
2026-05-05 14:18 6.68471 -75.37133 24116 ft 389 kts 358°
2026-05-05 14:18 6.71178 -75.37290 24115 ft 389 kts 358°
2026-05-05 14:19 6.73884 -75.37447 24118 ft 389 kts 358°
2026-05-05 14:19 6.75674 -75.37551 24118 ft 389 kts 358°
2026-05-05 14:19 6.78378 -75.37708 24097 ft 389 kts 358°
2026-05-05 14:19 6.81066 -75.37863 24098 ft 389 kts 358°
2026-05-05 14:20 6.83795 -75.38021 24098 ft 389 kts 358°
2026-05-05 14:20 6.86491 -75.38178 24098 ft 389 kts 358°
2026-05-05 14:20 6.89202 -75.38335 24102 ft 390 kts 358°
2026-05-05 14:20 6.91915 -75.38493 24075 ft 389 kts 358°
2026-05-05 14:21 6.94619 -75.38649 24075 ft 389 kts 358°
2026-05-05 14:21 6.97328 -75.38807 24075 ft 389 kts 358°
2026-05-05 14:21 7.00036 -75.38964 24077 ft 390 kts 358°
2026-05-05 14:21 7.02738 -75.39131 24074 ft 389 kts 358°
2026-05-05 14:22 7.06324 -75.39395 24049 ft 390 kts 357°
2026-05-05 14:22 7.08155 -75.39541 24048 ft 389 kts 357°
2026-05-05 14:22 7.10850 -75.39761 24049 ft 390 kts 357°
2026-05-05 14:22 7.13530 -75.39981 24047 ft 390 kts 357°
2026-05-05 14:23 7.16236 -75.40203 24045 ft 390 kts 357°
2026-05-05 14:23 7.18943 -75.40422 24048 ft 390 kts 357°
2026-05-05 14:23 7.21652 -75.40640 24049 ft 390 kts 357°
2026-05-05 14:23 7.24326 -75.40854 24048 ft 390 kts 357°
2026-05-05 14:24 7.27034 -75.41069 24048 ft 389 kts 357°
2026-05-05 14:24 7.29741 -75.41285 24052 ft 390 kts 357°
2026-05-05 14:24 7.32466 -75.41502 24050 ft 390 kts 357°
2026-05-05 14:24 7.35171 -75.41717 24032 ft 390 kts 357°
2026-05-05 14:25 7.37870 -75.41932 24026 ft 390 kts 357°
2026-05-05 14:25 7.40539 -75.42144 24027 ft 390 kts 357°
2026-05-05 14:25 7.43251 -75.42361 24026 ft 390 kts 357°
2026-05-05 14:25 7.45952 -75.42576 24026 ft 390 kts 357°
2026-05-05 14:26 7.48666 -75.42793 24026 ft 390 kts 357°
2026-05-05 14:26 7.51375 -75.43009 23998 ft 390 kts 357°
2026-05-05 14:26 7.54079 -75.43224 23999 ft 390 kts 357°
2026-05-05 14:26 7.56787 -75.43440 23999 ft 390 kts 357°
2026-05-05 14:27 7.59500 -75.43657 23998 ft 390 kts 357°
2026-05-05 14:27 7.62205 -75.43873 23999 ft 390 kts 357°
2026-05-05 14:27 7.64912 -75.44089 23979 ft 390 kts 357°
2026-05-05 14:27 7.67617 -75.44304 23979 ft 390 kts 357°
2026-05-05 14:28 7.70330 -75.44521 23977 ft 390 kts 357°
2026-05-05 14:28 7.72995 -75.44733 23982 ft 390 kts 357°
2026-05-05 14:28 7.75708 -75.44950 23980 ft 390 kts 357°
2026-05-05 14:28 7.78410 -75.45166 23979 ft 390 kts 357°
2026-05-05 14:29 7.81114 -75.45382 23963 ft 390 kts 356°
2026-05-05 14:29 7.83823 -75.45599 23963 ft 390 kts 356°
2026-05-05 14:29 7.86536 -75.45774 23963 ft 390 kts 359°
2026-05-05 14:29 7.89215 -75.45870 23963 ft 390 kts 360°
2026-05-05 14:30 7.91959 -75.45926 23961 ft 389 kts
2026-05-05 14:30 7.94670 -75.45964 23952 ft 389 kts
2026-05-05 14:30 7.97380 -75.46001 23952 ft 389 kts
2026-05-05 14:30 8.00043 -75.46041 23952 ft 389 kts
2026-05-05 14:31 8.02762 -75.46090 23952 ft 389 kts
2026-05-05 14:31 8.05471 -75.46143 23950 ft 389 kts
2026-05-05 14:31 8.08176 -75.46197 23947 ft 389 kts 360°
2026-05-05 14:31 8.10891 -75.46253 23949 ft 389 kts 360°
2026-05-05 14:32 8.13601 -75.46309 23947 ft 389 kts 360°
2026-05-05 14:32 8.16323 -75.46365 23947 ft 389 kts 360°
2026-05-05 14:32 8.19005 -75.46420 23947 ft 389 kts 360°
2026-05-05 14:32 8.21711 -75.46477 23949 ft 390 kts 360°
2026-05-05 14:33 8.24426 -75.46533 23946 ft 390 kts 360°
2026-05-05 14:33 8.27134 -75.46589 23945 ft 389 kts 360°
2026-05-05 14:33 8.29845 -75.46646 23947 ft 389 kts 360°
2026-05-05 14:33 8.32552 -75.46702 23946 ft 389 kts 360°
2026-05-05 14:34 8.35263 -75.46759 23949 ft 389 kts 360°
2026-05-05 14:34 8.37974 -75.46815 23947 ft 389 kts 360°
2026-05-05 14:34 8.40678 -75.46871 23947 ft 389 kts 360°
2026-05-05 14:34 8.43395 -75.46928 23947 ft 389 kts 360°
2026-05-05 14:35 8.46101 -75.46984 23942 ft 389 kts 360°
2026-05-05 14:35 8.48812 -75.47040 23944 ft 389 kts 360°
2026-05-05 14:35 8.51525 -75.47097 23944 ft 389 kts 360°
2026-05-05 14:35 8.54230 -75.47153 23944 ft 389 kts 360°
2026-05-05 14:36 8.56905 -75.47209 23947 ft 389 kts 360°
2026-05-05 14:36 8.59619 -75.47265 23947 ft 389 kts 360°
2026-05-05 14:36 8.62331 -75.47322 23947 ft 389 kts 360°
2026-05-05 14:36 8.65039 -75.47378 23947 ft 389 kts 360°
2026-05-05 14:37 8.67751 -75.47435 23944 ft 389 kts 360°
2026-05-05 14:37 8.70459 -75.47491 23949 ft 389 kts 360°
2026-05-05 14:37 8.73131 -75.47547 23904 ft 390 kts 360°
2026-05-05 14:37 8.75840 -75.47603 23607 ft 388 kts 360°
2026-05-05 14:38 8.78525 -75.47660 23006 ft 384 kts
2026-05-05 14:38 8.81187 -75.47715 22349 ft 381 kts
2026-05-05 14:38 8.83837 -75.47771 22011 ft 379 kts
2026-05-05 14:38 8.86457 -75.47825 21944 ft 378 kts
2026-05-05 14:39 8.89102 -75.47880 21945 ft 378 kts
2026-05-05 14:39 8.91731 -75.47935 21946 ft 378 kts
2026-05-05 14:39 8.94331 -75.47989 21949 ft 378 kts
2026-05-05 14:39 8.96953 -75.48044 21949 ft 378 kts
2026-05-05 14:40 8.99591 -75.48099 21941 ft 378 kts
2026-05-05 14:40 9.02218 -75.48154 21944 ft 378 kts
2026-05-05 14:40 9.04857 -75.48209 21944 ft 378 kts
2026-05-05 14:40 9.07494 -75.48264 21944 ft 378 kts
2026-05-05 14:41 9.10125 -75.48319 21946 ft 378 kts
2026-05-05 14:41 9.12771 -75.48374 21947 ft 379 kts
2026-05-05 14:41 9.15406 -75.48429 21944 ft 379 kts
2026-05-05 14:41 9.18037 -75.48484 21937 ft 379 kts
2026-05-05 14:42 9.20643 -75.48539 21794 ft 378 kts
2026-05-05 14:42 9.23269 -75.48593 21596 ft 378 kts
2026-05-05 14:42 9.25895 -75.48648 21008 ft 376 kts
2026-05-05 14:42 9.28509 -75.48703 20472 ft 373 kts
2026-05-05 14:43 9.31110 -75.48758 19982 ft 371 kts
2026-05-05 14:43 9.33669 -75.48812 19480 ft 370 kts
2026-05-05 14:43 9.36241 -75.48865 18977 ft 368 kts
2026-05-05 14:43 9.38810 -75.48919 18476 ft 367 kts
2026-05-05 14:44 9.41360 -75.48973 17935 ft 365 kts
2026-05-05 14:44 9.43856 -75.49025 17427 ft 363 kts
2026-05-05 14:44 9.46387 -75.49078 16926 ft 361 kts
2026-05-05 14:44 9.48900 -75.49133 16431 ft 359 kts
2026-05-05 14:45 9.51389 -75.49214 15879 ft 357 kts
2026-05-05 14:45 9.53864 -75.49305 15351 ft 355 kts
2026-05-05 14:45 9.56326 -75.49397 14860 ft 353 kts
2026-05-05 14:45 9.58782 -75.49489 14383 ft 352 kts
2026-05-05 14:46 9.61196 -75.49579 13899 ft 350 kts
2026-05-05 14:46 9.63633 -75.49670 13382 ft 348 kts
2026-05-05 14:46 9.66042 -75.49760 12861 ft 345 kts
2026-05-05 14:46 9.68436 -75.49849 12391 ft 342 kts
2026-05-05 14:47 9.70778 -75.49936 11920 ft 339 kts
2026-05-05 14:47 9.73130 -75.50024 11434 ft 336 kts
2026-05-05 14:47 9.75461 -75.50111 10963 ft 333 kts
2026-05-05 14:47 9.77770 -75.50197 10649 ft 324 kts
2026-05-05 14:48 9.79964 -75.50281 10516 ft 309 kts
2026-05-05 14:48 9.82120 -75.50361 10111 ft 308 kts
2026-05-05 14:48 9.84235 -75.50439 9683 ft 306 kts
2026-05-05 14:48 9.86356 -75.50517 9252 ft 302 kts
2026-05-05 14:49 9.88452 -75.50594 8859 ft 300 kts
2026-05-05 14:49 9.90546 -75.50672 8471 ft 300 kts
2026-05-05 14:49 9.92638 -75.50747 8061 ft 299 kts
2026-05-05 14:49 9.94694 -75.50824 7676 ft 297 kts
2026-05-05 14:50 9.96758 -75.50902 7282 ft 295 kts
2026-05-05 14:50 9.98809 -75.50979 6894 ft 294 kts
2026-05-05 14:50 10.00847 -75.51055 6498 ft 292 kts
2026-05-05 14:50 10.02845 -75.51129 6091 ft 290 kts
2026-05-05 14:51 10.04851 -75.51204 5689 ft 287 kts
2026-05-05 14:51 10.06843 -75.51278 5306 ft 285 kts
2026-05-05 14:51 10.08824 -75.51352 4919 ft 283 kts
2026-05-05 14:51 10.10787 -75.51425 4524 ft 281 kts
2026-05-05 14:52 10.12732 -75.51499 4130 ft 278 kts
2026-05-05 14:52 10.14666 -75.51571 3759 ft 277 kts
2026-05-05 14:52 10.16587 -75.51641 3374 ft 275 kts 360°
2026-05-05 14:52 10.18499 -75.51712 3071 ft 273 kts 360°
2026-05-05 14:53 10.20376 -75.51781 3018 ft 273 kts 360°
2026-05-05 14:53 10.22257 -75.51855 3001 ft 264 kts 359°
2026-05-05 14:53 10.24024 -75.51955 2984 ft 244 kts 359°
2026-05-05 14:53 10.25665 -75.52007 3000 ft 225 kts
2026-05-05 14:54 10.27144 -75.51986 2983 ft 201 kts
2026-05-05 14:54 10.28503 -75.51943 2819 ft 191 kts
2026-05-05 14:54 10.29803 -75.51884 2531 ft 179 kts
2026-05-05 14:54 10.30997 -75.51835 2274 ft 166 kts
2026-05-05 14:55 10.32132 -75.51788 2048 ft 161 kts
2026-05-05 14:55 10.33233 -75.51743 1855 ft 159 kts
2026-05-05 14:55 10.34335 -75.51697 1649 ft 157 kts
2026-05-05 14:55 10.35423 -75.51653 1451 ft 156 kts
2026-05-05 14:56 10.36505 -75.51608 1253 ft 154 kts
2026-05-05 14:56 10.37571 -75.51564 1043 ft 153 kts
2026-05-05 14:56 10.38636 -75.51520 869 ft 152 kts
2026-05-05 14:56 10.39679 -75.51474 661 ft 150 kts
2026-05-05 14:57 10.40736 -75.51429 564 ft 154 kts
2026-05-05 14:57 10.41804 -75.51389 411 ft 151 kts
2026-05-05 14:57 10.42859 -75.51348 174 ft 149 kts
2026-05-05 14:57 10.43853 -75.51308 60 ft 124 kts
2026-05-05 14:58 10.44433 -75.51280 56 ft 38 kts
2026-05-05 14:58 10.44534 -75.51277 55 ft 9 kts
2026-05-05 14:58 10.44607 -75.51275 60 ft 8 kts
2026-05-05 14:58 10.44625 -75.51274 53 ft 0 kts
2026-05-05 14:59 10.44627 -75.51274 54 ft 3 kts
2026-05-05 14:59 10.44668 -75.51247 53 ft 11 kts 81°
2026-05-05 14:59 10.44667 -75.51147 60 ft 13 kts 92°
2026-05-05 14:59 10.44639 -75.51072 55 ft 10 kts 140°
2026-05-05 15:00 10.44606 -75.51081 60 ft 7 kts 266°
2026-05-05 15:00 10.44612 -75.51104 60 ft 1 kts 306°
2026-05-05 15:00 10.44613 -75.51105 60 ft 0 kts 306°